Weather History for Cheyenne, WY

Change the Weather History Date:

Tuesday, December 4, 2012

  Actual Average Record
Temperature  
Mean Temperature 40 °F 28 °F  
Max Temperature 53 °F 39 °F 64 °F (1975)
Min Temperature 27 °F 18 °F -13 °F (2013)
Degree Days  
Heating Degree Days 25 37  
Month to date heating degree days 87 145  
Since 1 July heating degree days 1628 1893  
Cooling Degree Days 0 0  
Month to date cooling degree days 0 0  
Year to date cooling degree days 568 348  
Moisture  
Dew Point 8 °F    
Average Humidity 23    
Maximum Humidity 33    
Minimum Humidity 13    
Precipitation  
Precipitation 0.00 in 0.02 in 0.70 in (1913)
Month to date precipitation 0.00 0.07  
Year to date precipitation 9.58 15.52  
Snow  
Snow 0.00 in 0.30 in 5.00 in (1913)
Month to date snowfall 0.0 1.2  
Since 1 July snowfall 10.6 15.5  
Snow Depth 0.00 in    
Sea Level Pressure  
Sea Level Pressure 30.20 in    
Wind  
Wind Speed 14 mph (WSW)    
Max Wind Speed 33 mph    
Max Gust Speed 44 mph    
Visibility 10 miles    
Events      
T = Trace of Precipitation, MM = Missing Value Source: NWS Daily Summary

Daily Weather History Graph

Daily Weather History Graph

Search for Another Location

Airport:

Trip Planner

Search our weather history database for the weather conditions in past years. The results will help you decide how hot, cold, wet, or windy it might be!

Date:

Astronomy

Dec. 04, 2012 Rise Set
Actual Time 7:08 AM MST 4:30 PM MST
Civil Twilight 6:37 AM MST 5:01 PM MST
Nautical Twilight 6:03 AM MST 5:35 PM MST
Astronomical Twilight 5:30 AM MST 6:09 PM MST
Moon 10:22 PM MST (12/4) 11:02 AM MST (12/4)
Length of Visible Light 10h 23m
Length of Day
9h 21m
Waning Gibbous, 69% of the Moon is Illuminated
Dec 4
Waning Gibbous
Dec 6
Last Quarter
Dec 13
New
Dec 19
First Quarter
Dec 28
Full

Hourly Weather History & Observations

Time (MST) Temp. Windchill Dew Point Humidity Pressure Visibility Wind Dir Wind Speed Gust Speed Precip Events Conditions
12:53 AM 30.9 °F 23.5 °F 1.0 °F 28% 30.20 in 10.0 mi West 8.1 mph - N/A   Clear
1:53 AM 35.1 °F - -0.0 °F 23% 30.19 in 10.0 mi North - - N/A   Clear
2:53 AM 33.1 °F 30.0 °F 3.9 °F 29% 30.22 in 10.0 mi Variable 3.5 mph - N/A   Clear
3:53 AM 28.9 °F - 1.9 °F 32% 30.26 in 10.0 mi Calm Calm - N/A   Clear
4:53 AM 34.0 °F 28.0 °F 1.9 °F 26% 30.25 in 10.0 mi West 6.9 mph - N/A   Clear
5:53 AM 30.9 °F - 1.0 °F 28% 30.30 in 10.0 mi Calm Calm - N/A   Clear
6:53 AM 28.9 °F 19.8 °F 1.9 °F 32% 30.34 in 10.0 mi WSW 10.4 mph - N/A   Clear
7:53 AM 32.0 °F 23.0 °F 5.0 °F 32% 30.32 in 10.0 mi SW 11.5 mph - N/A   Clear
8:53 AM 39.0 °F 31.4 °F 6.1 °F 26% 30.31 in 10.0 mi SSW 12.7 mph - N/A   Clear
9:53 AM 42.1 °F 34.5 °F 7.0 °F 24% 30.29 in 10.0 mi SSW 15.0 mph - N/A   Clear
10:53 AM 43.0 °F 34.2 °F 10.0 °F 26% 30.26 in 10.0 mi SSW 20.7 mph - N/A   Clear
11:53 AM 42.1 °F 34.9 °F 10.0 °F 27% 30.25 in 10.0 mi SSW 13.8 mph - N/A   Overcast
12:53 PM 44.1 °F 35.9 °F 9.0 °F 24% 30.20 in 10.0 mi SSW 19.6 mph 23.0 mph N/A   Mostly Cloudy
1:53 PM 46.9 °F - 7.0 °F 20% 30.15 in 10.0 mi SW 13.8 mph - N/A   Partly Cloudy
2:53 PM 53.1 °F - 3.9 °F 14% 30.11 in 10.0 mi West 20.7 mph 32.2 mph N/A   Scattered Clouds
3:53 PM 46.0 °F 42.5 °F 6.1 °F 20% 30.17 in 10.0 mi WSW 6.9 mph - N/A   Clear
4:53 PM 41.0 °F 33.9 °F 8.1 °F 26% 30.15 in 10.0 mi SW 12.7 mph - N/A   Clear
5:53 PM 48.0 °F - 12.0 °F 24% 30.11 in 10.0 mi West 32.2 mph 41.4 mph N/A   Clear
6:53 PM 46.9 °F - 12.9 °F 25% 30.16 in 10.0 mi West 18.4 mph 24.2 mph N/A   Clear
7:53 PM 46.9 °F - 12.9 °F 25% 30.13 in 10.0 mi West 25.3 mph 33.4 mph N/A   Clear
8:53 PM 46.9 °F - 17.1 °F 30% 30.10 in 10.0 mi West 29.9 mph 35.7 mph N/A   Clear
9:53 PM 46.9 °F - 17.1 °F 30% 30.09 in 10.0 mi West 20.7 mph 31.1 mph N/A   Clear
10:53 PM 45.0 °F 37.9 °F 17.1 °F 33% 30.09 in 10.0 mi West 16.1 mph - N/A   Clear
11:53 PM 43.0 °F 37.7 °F 14.0 °F 31% 30.11 in 10.0 mi SW 9.2 mph - N/A   Clear